Location: Newark
(39.9581°N, 97.2014°W)
Time: 07:14:59
(UTC+00:00)

Envisat - Pass Details

Date: 20 January 2020
Orbit: 764 x 766 km, 98.1° (Epoch: 20 February)

Event Time Altitude Azimuth Distance (km) Brightness Sun altitude
Rises 00:29:29 0° 171° (S) 3,218 6.3 -11.0°
Reaches altitude 10° 00:31:48 10° 174° (S) 2,296 5.6 -11.4°
Maximum altitude 00:36:50 71° 258° (WSW) 812 3.3 -12.4°
Drops below altitude 10° 00:41:56 10° 343° (NNW) 2,311 5.5 -13.3°
Sets 00:44:15 0° 345° (NNW) 3,241 6.2 -13.7°
